| time (UTC) | temp F | wind direction | speed knots | gust knots | rain 1hr in | rain 24hr in | rain mn in | humidity % | barometer mb |
| 20260905141116 | 59 | 0.0 | 0.0 | 0.00 | 0.00 | 0.00 | 80 | 1015.0 | |
| 20260905140116 | 59 | 0.0 | 0.0 | 0.00 | 0.00 | 0.00 | 80 | 1014.9 | |
| 20260905135116 | 59 | 0.0 | 0.0 | 0.00 | 0.00 | 0.00 | 80 | 1014.9 | |
| 20260905134116 | 59 | 0.0 | 0.0 | 0.00 | 0.00 | 0.00 | 80 | 1014.9 | |
| 20260905133117 | 59 | 0.0 | 0.0 | 0.00 | 0.00 | 0.00 | 80 | 1014.9 | |
| 20260905132116 | 59 | 0.0 | 0.0 | 0.00 | 0.00 | 0.00 | 80 | 1014.8 | |
| 20260905131138 | 59 | 0.0 | 0.0 | 0.00 | 0.00 | 0.00 | 80 | 1014.8 | |
| 20260905125117 | 59 | 0.0 | 0.0 | 0.00 | 0.00 | 0.00 | 80 | 1014.8 | |
| 20260905124217 | 59 | 0.0 | 0.0 | 0.00 | 0.01 | 0.00 | 79 | 1014.8 | |
| 20260905123117 | 59 | 0.0 | 0.0 | 0.00 | 0.01 | 0.00 | 79 | 1014.8 | |
| 20260905122137 | 60 | 0.0 | 0.0 | 0.00 | 0.01 | 0.00 | 79 | 1014.8 | |
| 20260905121117 | 60 | 0.0 | 0.0 | 0.00 | 0.01 | 0.00 | 79 | 1014.8 | |
| 20260905120144 | 60 | 0.0 | 0.0 | 0.00 | 0.01 | 0.00 | 79 | 1014.9 | |
| 20260905115119 | 60 | 0.0 | 0.0 | 0.00 | 0.01 | 0.00 | 79 | 1014.9 | |
| 20260905114117 | 60 | 0.0 | 0.0 | 0.00 | 0.01 | 0.00 | 79 | 1014.8 | |
| 20260905113117 | 60 | 0.0 | 0.0 | 0.00 | 0.01 | 0.00 | 79 | 1014.9 | |
| 20260905112117 | 60 | 0.0 | 0.0 | 0.00 | 0.01 | 0.00 | 78 | 1015.0 | |
| 20260905111117 | 60 | 0.0 | 0.0 | 0.00 | 0.01 | 0.00 | 78 | 1015.0 | |
| 20260905110136 | 60 | 0.0 | 0.0 | 0.00 | 0.01 | 0.00 | 78 | 1015.0 | |
| 20260905105116 | 60 | 0.0 | 0.0 | 0.00 | 0.01 | 0.00 | 78 | 1015.0 | |
| 20260905104116 | 60 | 0.0 | 0.0 | 0.00 | 0.01 | 0.00 | 78 | 1014.9 | |
| 20260905103116 | 60 | 0.0 | 0.0 | 0.00 | 0.02 | 0.00 | 78 | 1015.0 | |
| 20260905102116 | 60 | 0.0 | 0.0 | 0.00 | 0.02 | 0.00 | 78 | 1015.1 | |
| 20260905101116 | 60 | 0.0 | 0.0 | 0.00 | 0.03 | 0.00 | 77 | 1015.2 | |
| 20260905100116 | 60 | 0.0 | 0.0 | 0.00 | 0.04 | 0.00 | 77 | 1015.1 | |
| 20260905095116 | 61 | 0.0 | 0.0 | 0.00 | 0.04 | 0.00 | 77 | 1015.1 | |
| 20260905094116 | 61 | 0.0 | 0.0 | 0.00 | 0.04 | 0.00 | 76 | 1015.1 | |
| 20260905093116 | 61 | 0.0 | 0.0 | 0.00 | 0.04 | 0.00 | 76 | 1015.2 | |
| 20260905092115 | 61 | 0.0 | 0.0 | 0.00 | 0.04 | 0.00 | 75 | 1015.2 | |
| 20260905091116 | 61 | 0.0 | 0.0 | 0.00 | 0.04 | 0.00 | 74 | 1015.2 | |
| 20260905090116 | 61 | 0.0 | 0.0 | 0.00 | 0.05 | 0.00 | 73 | 1015.3 | |
| 20260905085137 | 61 | 0.0 | 0.0 | 0.00 | 0.05 | 0.00 | 73 | 1015.3 | |
| 20260905084116 | 61 | 0.0 | 0.0 | 0.00 | 0.05 | 0.00 | 72 | 1015.3 | |
| 20260905083116 | 61 | 0.0 | 0.0 | 0.00 | 0.05 | 0.00 | 72 | 1015.4 | |
| 20260905082136 | 61 | 0.0 | 0.0 | 0.00 | 0.05 | 0.00 | 72 | 1015.4 | |
| 20260905081116 | 61 | 0.0 | 0.0 | 0.00 | 0.05 | 0.00 | 72 | 1015.4 | |
| 20260905080116 | 61 | 0.0 | 0.0 | 0.00 | 0.05 | 0.00 | 72 | 1015.5 | |
| 20260905075116 | 61 | 0.0 | 0.0 | 0.00 | 0.05 | 0.00 | 71 | 1015.5 | |
| 20260905074115 | 61 | 0.0 | 0.0 | 0.00 | 0.05 | 0.00 | 71 | 1015.5 | |
| 20260905073136 | 61 | 0.0 | 0.0 | 0.00 | 0.05 | 0.00 | 71 | 1015.4 | |
| 20260905072116 | 61 | 0.0 | 0.0 | 0.00 | 0.05 | 0.00 | 72 | 1015.3 | |
| 20260905071116 | 62 | 0.0 | 0.0 | 0.00 | 0.05 | 0.00 | 72 | 1015.3 | |
| 20260905065116 | 62 | 0.0 | 0.0 | 0.00 | 0.05 | 0.05 | 71 | 1015.1 | |
| 20260905064116 | 62 | 0.0 | 0.0 | 0.00 | 0.05 | 0.05 | 71 | 1015.1 | |
| 20260905063116 | 62 | 0.0 | 0.0 | 0.00 | 0.05 | 0.05 | 71 | 1015.0 | |
| 20260905062136 | 62 | 0.0 | 0.0 | 0.00 | 0.05 | 0.05 | 72 | 1015.0 | |
| 20260905061116 | 62 | 0.0 | 0.0 | 0.00 | 0.05 | 0.05 | 71 | 1015.0 | |
| 20260905060156 | 62 | 0.0 | 0.0 | 0.00 | 0.05 | 0.05 | 71 | 1015.1 | |
| 20260905055116 | 62 | 0.0 | 0.0 | 0.00 | 0.05 | 0.05 | 70 | 1014.9 | |
| 20260905054136 | 62 | 0.0 | 0.0 | 0.00 | 0.05 | 0.05 | 70 | 1014.8 | |
| 20260905053116 | 62 | 0.0 | 0.0 | 0.00 | 0.05 | 0.05 | 69 | 1014.7 | |
| 20260905052116 | 63 | 0.0 | 0.0 | 0.00 | 0.05 | 0.05 | 68 | 1014.7 | |
| 20260905051116 | 63 | 0.0 | 0.0 | 0.00 | 0.05 | 0.05 | 68 | 1014.8 | |
| 20260905050135 | 63 | 0.0 | 0.0 | 0.00 | 0.05 | 0.05 | 68 | 1014.7 | |
| 20260905045117 | 62 | 0.0 | 0.0 | 0.00 | 0.05 | 0.05 | 69 | 1014.8 | |
| 20260905044117 | 62 | 0.0 | 0.0 | 0.00 | 0.05 | 0.05 | 67 | 1014.8 | |
| 20260905043137 | 62 | 0.0 | 0.0 | 0.00 | 0.05 | 0.05 | 65 | 1014.6 | |
| 20260905042117 | 63 | 0.0 | 0.0 | 0.00 | 0.05 | 0.05 | 65 | 1014.5 | |
| 20260905041117 | 63 | 0.0 | 0.0 | 0.00 | 0.05 | 0.05 | 62 | 1014.4 | |
| 20260905040118 | 64 | 0.0 | 0.0 | 0.00 | 0.05 | 0.05 | 61 | 1014.5 | |
| 20260905035117 | 65 | 0.0 | 0.0 | 0.00 | 0.05 | 0.05 | 60 | 1014.3 | |
| 20260905034117 | 65 | 0.0 | 0.0 | 0.00 | 0.05 | 0.05 | 59 | 1014.2 | |
| 20260905033117 | 66 | 0.0 | 0.0 | 0.00 | 0.05 | 0.05 | 58 | 1014.0 | |
| 20260905032120 | 66 | 0.0 | 0.0 | 0.00 | 0.05 | 0.05 | 57 | 1013.9 | |
| 20260905031117 | 67 | 0.0 | 0.0 | 0.00 | 0.05 | 0.05 | 55 | 1013.8 | |
| 20260905030117 | 68 | 0.0 | 0.0 | 0.00 | 0.05 | 0.05 | 55 | 1013.7 | |
| 20260905025117 | 68 | 0.0 | 0.0 | 0.00 | 0.05 | 0.05 | 53 | 1013.7 | |
| 20260905024140 | 68 | 0.0 | 0.0 | 0.00 | 0.05 | 0.05 | 52 | 1013.5 | |
| 20260905023158 | 69 | 0.0 | 0.0 | 0.00 | 0.05 | 0.05 | 52 | 1013.4 | |
| 20260905022118 | 70 | 0.0 | 0.0 | 0.00 | 0.05 | 0.05 | 50 | 1013.3 | |
| 20260905021138 | 70 | 0.0 | 0.0 | 0.00 | 0.05 | 0.05 | 50 | 1013.2 | |
| 20260905020138 | 71 | 0.0 | 0.0 | 0.00 | 0.05 | 0.05 | 50 | 1013.1 | |
| 20260905015117 | 72 | 0.0 | 0.0 | 0.00 | 0.05 | 0.05 | 50 | 1013.2 | |
| 20260905014118 | 73 | 0.0 | 0.0 | 0.00 | 0.05 | 0.05 | 49 | 1013.3 | |
| 20260905013117 | 73 | 0.0 | 0.0 | 0.00 | 0.05 | 0.05 | 48 | 1013.3 | |
| 20260905012117 | 74 | 0.0 | 0.0 | 0.00 | 0.05 | 0.05 | 48 | 1013.2 | |
| 20260905011117 | 75 | 248 | 2.6 | 7.0 | 0.00 | 0.05 | 0.05 | 49 | 1013.3 |
| 20260905005317 | 75 | 0.0 | 0.0 | 0.00 | 0.05 | 0.05 | 50 | 1013.1 | |
| 20260905004317 | 76 | 0.0 | 0.0 | 0.00 | 0.05 | 0.05 | 50 | 1013.0 | |
| 20260905003317 | 76 | 0.0 | 0.0 | 0.00 | 0.05 | 0.05 | 49 | 1013.0 | |
| 20260905002317 | 76 | 0.0 | 0.0 | 0.00 | 0.05 | 0.05 | 50 | 1013.0 | |
| 20260905001317 | 77 | 0.0 | 0.0 | 0.00 | 0.05 | 0.05 | 49 | 1013.0 | |
| 20260905000318 | 77 | 0.0 | 0.0 | 0.00 | 0.05 | 0.05 | 48 | 1013.0 | |
| 20260904235317 | 78 | 0.0 | 0.0 | 0.00 | 0.05 | 0.05 | 48 | 1013.0 | |
| 20260904234317 | 78 | 225 | 1.7 | 7.8 | 0.00 | 0.05 | 0.05 | 48 | 1013.0 |
| 20260904233317 | 78 | 0.0 | 0.0 | 0.00 | 0.05 | 0.05 | 49 | 1013.0 | |
| 20260904232317 | 79 | 0.0 | 0.0 | 0.00 | 0.05 | 0.05 | 49 | 1012.9 | |
| 20260904231317 | 79 | 0.0 | 0.0 | 0.00 | 0.05 | 0.05 | 51 | 1013.0 | |
| 20260904230358 | 79 | 0.0 | 0.0 | 0.00 | 0.05 | 0.05 | 51 | 1013.0 | |
| 20260904225317 | 80 | 0.0 | 0.0 | 0.00 | 0.05 | 0.05 | 50 | 1013.1 | |
| 20260904224337 | 81 | 0.0 | 0.0 | 0.00 | 0.05 | 0.05 | 49 | 1013.1 | |
| 20260904223338 | 82 | 0.0 | 0.0 | 0.00 | 0.05 | 0.05 | 49 | 1013.2 | |
| 20260904222317 | 81 | 0.0 | 0.0 | 0.00 | 0.05 | 0.05 | 48 | 1013.4 | |
| 20260904221317 | 82 | 0.0 | 0.0 | 0.00 | 0.05 | 0.05 | 48 | 1013.4 | |
| 20260904220337 | 81 | 0.0 | 0.0 | 0.00 | 0.05 | 0.05 | 49 | 1013.5 | |
| 20260904215317 | 81 | 0.0 | 0.0 | 0.00 | 0.05 | 0.05 | 49 | 1013.6 | |
| 20260904214317 | 81 | 0.0 | 0.0 | 0.00 | 0.05 | 0.05 | 50 | 1013.7 | |
| 20260904213317 | 80 | 0.0 | 0.0 | 0.00 | 0.05 | 0.05 | 49 | 1013.7 | |
| 20260904212338 | 80 | 0.0 | 0.0 | 0.00 | 0.05 | 0.05 | 53 | 1013.7 | |
| 20260904211317 | 79 | 0.0 | 0.0 | 0.00 | 0.05 | 0.05 | 53 | 1013.7 | |
| 20260904210318 | 78 | 0.0 | 0.0 | 0.00 | 0.05 | 0.05 | 53 | 1013.9 | |
| 20260904205338 | 78 | 0.0 | 0.0 | 0.00 | 0.05 | 0.05 | 54 | 1014.0 | |
| 20260904204317 | 78 | 0.0 | 0.0 | 0.00 | 0.05 | 0.05 | 56 | 1014.0 | |
| 20260904203337 | 76 | 0.0 | 0.0 | 0.00 | 0.05 | 0.05 | 59 | 1014.2 | |
| 20260904202317 | 76 | 0.0 | 0.0 | 0.00 | 0.05 | 0.05 | 58 | 1014.2 | |
| 20260904201317 | 76 | 0.0 | 0.0 | 0.00 | 0.05 | 0.05 | 60 | 1014.4 | |
| 20260904200317 | 75 | 0.0 | 0.0 | 0.00 | 0.05 | 0.05 | 61 | 1014.4 | |
| 20260904195317 | 75 | 0.0 | 0.0 | 0.00 | 0.05 | 0.05 | 61 | 1014.5 | |
| 20260904194317 | 74 | 0.0 | 0.0 | 0.00 | 0.05 | 0.05 | 61 | 1014.5 | |
| 20260904193337 | 74 | 0.0 | 0.0 | 0.00 | 0.05 | 0.05 | 61 | 1014.5 | |
| 20260904192337 | 74 | 0.0 | 0.0 | 0.00 | 0.05 | 0.05 | 63 | 1014.6 | |
| 20260904191317 | 73 | 0.0 | 0.0 | 0.00 | 0.05 | 0.05 | 65 | 1014.7 | |
| 20260904190348 | 72 | 0.0 | 0.0 | 0.00 | 0.05 | 0.05 | 61 | 1014.7 | |
| 20260904190217 | 72 | 0.0 | 0.0 | 0.00 | 0.05 | 0.05 | 62 | 1014.8 | |
| 20260904185116 | 72 | 0.0 | 0.0 | 0.00 | 0.05 | 0.05 | 64 | 1014.8 | |
| 20260904184116 | 71 | 0.0 | 0.0 | 0.00 | 0.05 | 0.05 | 66 | 1014.9 | |
| 20260904183118 | 70 | 0.0 | 0.0 | 0.00 | 0.05 | 0.05 | 69 | 1014.9 | |
| 20260904182116 | 69 | 0.0 | 0.0 | 0.00 | 0.05 | 0.05 | 72 | 1015.0 | |
| 20260904181118 | 68 | 0.0 | 0.0 | 0.00 | 0.05 | 0.05 | 74 | 1015.0 | |
| 20260904180116 | 67 | 0.0 | 0.0 | 0.00 | 0.05 | 0.05 | 77 | 1015.1 | |
| 20260904175116 | 67 | 0.0 | 0.0 | 0.00 | 0.05 | 0.05 | 80 | 1015.1 | |
| 20260904174116 | 67 | 0.0 | 0.0 | 0.00 | 0.05 | 0.05 | 84 | 1015.1 | |
| 20260904173138 | 65 | 0.0 | 0.0 | 0.00 | 0.05 | 0.05 | 88 | 1015.1 | |
| 20260904172116 | 64 | 0.0 | 0.0 | 0.00 | 0.05 | 0.05 | 90 | 1015.0 | |
| 20260904171116 | 63 | 0.0 | 0.0 | 0.00 | 0.05 | 0.05 | 93 | 1015.1 | |
| 20260904170116 | 62 | 0.0 | 0.0 | 0.00 | 0.05 | 0.05 | 95 | 1015.0 | |
| 20260904165116 | 61 | 0.0 | 0.0 | 0.00 | 0.05 | 0.05 | 94 | 1015.0 | |
| 20260904164116 | 61 | 0.0 | 0.0 | 0.00 | 0.05 | 0.05 | 95 | 1015.0 | |
| 20260904163116 | 62 | 0.0 | 0.0 | 0.00 | 0.05 | 0.05 | 96 | 1015.0 | |
| 20260904162156 | 61 | 0.0 | 0.0 | 0.00 | 0.05 | 0.05 | 96 | 1014.9 | |
| 20260904161118 | 61 | 0.0 | 0.0 | 0.00 | 0.05 | 0.05 | 95 | 1014.9 | |
| 20260904160116 | 61 | 0.0 | 0.0 | 0.00 | 0.05 | 0.05 | 96 | 1014.8 | |
| 20260904155116 | 61 | 0.0 | 0.0 | 0.00 | 0.05 | 0.05 | 95 | 1014.8 | |
| 20260904154116 | 61 | 0.0 | 0.0 | 0.00 | 0.05 | 0.05 | 96 | 1014.8 | |
| 20260904153136 | 60 | 0.0 | 0.0 | 0.00 | 0.05 | 0.05 | 95 | 1014.7 | |
| 20260904152118 | 60 | 0.0 | 0.0 | 0.00 | 0.05 | 0.05 | 95 | 1014.7 | |
| 20260904151136 | 60 | 0.0 | 0.0 | 0.00 | 0.05 | 0.05 | 95 | 1014.7 | |
| 20260904150118 | 60 | 0.0 | 0.0 | 0.00 | 0.05 | 0.05 | 95 | 1014.6 | |
| 20260904145116 | 60 | 0.0 | 0.0 | 0.00 | 0.05 | 0.05 | 95 | 1014.5 | |
| 20260904144116 | 60 | 0.0 | 0.0 | 0.00 | 0.05 | 0.05 | 95 | 1014.3 | |
| 20260904143116 | 59 | 0.0 | 0.0 | 0.00 | 0.05 | 0.05 | 95 | 1014.2 | |
| 20260904142116 | 59 | 0.0 | 0.0 | 0.00 | 0.05 | 0.05 | 95 | 1014.3 |